TimeMDT,TemperatureF,Dew PointF,Humidity,Sea Level PressureIn,VisibilityMPH,Wind Direction,Wind SpeedMPH,Gust SpeedMPH,PrecipitationIn,Events,Conditions,WindDirDegrees,DateUTC
12:53 AM,36.0,25.0,64,29.94,10.0,Calm,Calm,-,N/A,,Overcast,0,2013-04-02 06:53:00
1:53 AM,36.0,24.1,62,29.94,10.0,Calm,Calm,-,N/A,,Overcast,0,2013-04-02 07:53:00
2:53 AM,30.9,21.9,69,29.94,10.0,NW,5.8,-,N/A,,Partly Cloudy,310,2013-04-02 08:53:00
3:53 AM,28.0,21.0,75,29.94,10.0,NNW,8.1,-,N/A,,Clear,330,2013-04-02 09:53:00
4:53 AM,28.0,21.9,78,29.95,10.0,ENE,4.6,-,N/A,,Clear,60,2013-04-02 10:53:00
5:53 AM,25.0,19.9,81,29.98,10.0,NE,5.8,-,N/A,,Scattered Clouds,50,2013-04-02 11:53:00
6:53 AM,26.1,19.9,78,29.98,10.0,NNE,9.2,-,N/A,,Clear,20,2013-04-02 12:53:00
7:53 AM,27.0,21.9,81,30.01,10.0,East,3.5,-,N/A,,Clear,80,2013-04-02 13:53:00
8:53 AM,33.1,25.0,72,30.01,10.0,Calm,Calm,-,N/A,,Clear,0,2013-04-02 14:53:00
9:53 AM,42.1,26.1,53,29.97,10.0,SE,4.6,-,N/A,,Clear,130,2013-04-02 15:53:00
10:53 AM,46.0,24.1,42,29.97,10.0,Calm,Calm,-,N/A,,Clear,0,2013-04-02 16:53:00
11:53 AM,50.0,18.0,28,29.95,10.0,ESE,5.8,-,N/A,,Clear,120,2013-04-02 17:53:00
12:53 PM,52.0,16.0,24,29.94,10.0,Variable,4.6,-,N/A,,Clear,0,2013-04-02 18:53:00
1:53 PM,54.0,14.0,21,29.93,10.0,Variable,5.8,-,N/A,,Clear,0,2013-04-02 19:53:00
2:53 PM,55.9,14.0,19,29.92,10.0,SSW,8.1,-,N/A,,Mostly Cloudy,210,2013-04-02 20:53:00
3:53 PM,55.9,14.0,19,29.92,10.0,Variable,5.8,-,N/A,,Overcast,0,2013-04-02 21:53:00
4:53 PM,55.9,10.0,16,29.92,10.0,Variable,5.8,-,N/A,,Partly Cloudy,0,2013-04-02 22:53:00
5:53 PM,60.1,10.0,14,29.91,10.0,Variable,6.9,-,N/A,,Overcast,0,2013-04-02 23:53:00
6:53 PM,55.0,6.1,14,29.94,10.0,East,10.4,-,N/A,,Overcast,100,2013-04-03 00:53:00
7:53 PM,46.9,9.0,21,29.99,10.0,East,4.6,-,N/A,,Partly Cloudy,100,2013-04-03 01:53:00
8:53 PM,44.1,12.0,27,29.99,10.0,South,8.1,-,N/A,,Overcast,170,2013-04-03 02:53:00
9:53 PM,39.0,12.0,33,30.01,10.0,NW,5.8,-,N/A,,Partly Cloudy,310,2013-04-03 03:53:00
10:53 PM,34.0,12.0,40,30.04,10.0,WNW,4.6,-,N/A,,Clear,300,2013-04-03 04:53:00
11:53 PM,35.1,12.9,40,30.00,10.0,West,4.6,-,N/A,,Clear,280,2013-04-03 05:53:00